TimeMST,TemperatureF,Dew PointF,Humidity,Sea Level PressureIn,VisibilityMPH,Wind Direction,Wind SpeedMPH,Gust SpeedMPH,PrecipitationIn,Events,Conditions,WindDirDegrees,DateUTC
12:15 AM,24.8,24.8,100,30.18,7.0,Calm,Calm,-,N/A,,Mostly Cloudy,0,2012-12-28 07:15:00
12:35 AM,24.8,24.8,100,30.19,5.0,ESE,3.5,-,N/A,,Partly Cloudy,110,2012-12-28 07:35:00
12:55 AM,24.8,24.8,100,30.19,6.0,Calm,Calm,-,N/A,,Mostly Cloudy,0,2012-12-28 07:55:00
1:15 AM,23.0,23.0,100,30.19,8.0,Calm,Calm,-,N/A,,Overcast,0,2012-12-28 08:15:00
1:35 AM,24.8,24.8,100,30.20,9.0,Calm,Calm,-,N/A,,Overcast,0,2012-12-28 08:35:00
1:55 AM,24.8,24.8,100,30.20,10.0,Calm,Calm,-,N/A,,Overcast,0,2012-12-28 08:55:00
2:15 AM,26.6,26.6,100,30.21,10.0,NNE,3.5,-,N/A,,Overcast,20,2012-12-28 09:15:00
2:35 AM,28.4,28.4,100,30.21,10.0,Calm,Calm,-,N/A,,Overcast,0,2012-12-28 09:35:00
2:55 AM,26.6,26.6,100,30.22,10.0,Calm,Calm,-,N/A,,Overcast,0,2012-12-28 09:55:00
3:15 AM,26.6,26.6,100,30.22,10.0,Calm,Calm,-,N/A,,Overcast,0,2012-12-28 10:15:00
3:35 AM,26.6,26.6,100,30.22,10.0,Calm,Calm,-,N/A,,Overcast,0,2012-12-28 10:35:00
3:55 AM,24.8,24.8,100,30.21,10.0,Calm,Calm,-,N/A,,Overcast,0,2012-12-28 10:55:00
4:15 AM,23.0,23.0,100,30.21,8.0,Calm,Calm,-,N/A,,Scattered Clouds,0,2012-12-28 11:15:00
4:35 AM,23.0,23.0,100,30.20,8.0,East,3.5,-,N/A,,Clear,80,2012-12-28 11:35:00
4:55 AM,21.2,21.2,100,30.20,8.0,Calm,Calm,-,N/A,,Clear,0,2012-12-28 11:55:00
5:15 AM,19.4,19.4,100,30.20,8.0,Calm,Calm,-,N/A,,Clear,0,2012-12-28 12:15:00
5:35 AM,19.4,19.4,100,30.20,8.0,Calm,Calm,-,N/A,,Scattered Clouds,0,2012-12-28 12:35:00
6:15 AM,17.6,17.6,100,30.21,10.0,SE,3.5,-,N/A,,Overcast,140,2012-12-28 13:15:00
6:35 AM,19.4,19.4,100,30.22,10.0,SE,3.5,-,N/A,,Overcast,130,2012-12-28 13:35:00
6:55 AM,17.6,17.6,100,30.22,10.0,SE,3.5,-,N/A,,Overcast,140,2012-12-28 13:55:00
7:15 AM,19.4,19.4,100,30.22,10.0,SE,3.5,-,N/A,,Overcast,140,2012-12-28 14:15:00
7:35 AM,19.4,19.4,100,30.22,10.0,Calm,Calm,-,N/A,,Overcast,0,2012-12-28 14:35:00
7:55 AM,19.4,19.4,100,30.22,10.0,ESE,3.5,-,N/A,,Mostly Cloudy,120,2012-12-28 14:55:00
8:15 AM,19.4,19.4,100,30.22,10.0,ESE,3.5,-,N/A,,Partly Cloudy,120,2012-12-28 15:15:00
8:35 AM,17.6,17.6,100,30.23,10.0,ESE,3.5,-,N/A,,Clear,120,2012-12-28 15:35:00
8:55 AM,17.6,17.6,100,30.23,10.0,ESE,3.5,-,N/A,,Clear,120,2012-12-28 15:55:00
9:15 AM,19.4,19.4,100,30.24,10.0,Calm,Calm,-,N/A,,Clear,0,2012-12-28 16:15:00
9:35 AM,19.4,19.4,100,30.24,10.0,Calm,Calm,-,N/A,,Clear,0,2012-12-28 16:35:00
9:55 AM,21.2,21.2,100,30.24,10.0,SE,3.5,-,N/A,,Clear,140,2012-12-28 16:55:00
10:15 AM,23.0,23.0,100,30.25,10.0,Calm,Calm,-,N/A,,Clear,0,2012-12-28 17:15:00
10:55 AM,26.6,23.0,86,30.24,10.0,Calm,Calm,-,N/A,,Clear,0,2012-12-28 17:55:00
11:15 AM,26.6,23.0,86,30.24,10.0,Calm,Calm,-,N/A,,Clear,0,2012-12-28 18:15:00
11:35 AM,28.4,23.0,80,30.24,10.0,WNW,5.8,-,N/A,,Clear,290,2012-12-28 18:35:00
11:55 AM,28.4,23.0,80,30.23,10.0,WNW,5.8,-,N/A,,Clear,290,2012-12-28 18:55:00
12:15 PM,28.4,23.0,80,30.23,10.0,WNW,4.6,-,N/A,,Clear,300,2012-12-28 19:15:00
12:35 PM,28.4,24.8,86,30.22,7.0,West,4.6,-,N/A,,Clear,280,2012-12-28 19:35:00
12:55 PM,28.4,24.8,86,30.21,5.0,West,3.5,-,N/A,,Clear,280,2012-12-28 19:55:00
1:15 PM,30.2,24.8,80,30.20,5.0,WNW,3.5,-,N/A,,Clear,300,2012-12-28 20:15:00
1:35 PM,30.2,24.8,80,30.20,7.0,NW,3.5,-,N/A,,Clear,310,2012-12-28 20:35:00
2:15 PM,30.2,24.8,80,30.20,10.0,NNW,4.6,-,N/A,,Clear,340,2012-12-28 21:15:00
2:35 PM,32.0,24.8,75,30.20,10.0,NNW,4.6,-,N/A,,Clear,340,2012-12-28 21:35:00
2:55 PM,32.0,24.8,75,30.20,10.0,Calm,Calm,-,N/A,,Clear,0,2012-12-28 21:55:00
3:15 PM,32.0,24.8,75,30.21,10.0,Calm,Calm,-,N/A,,Clear,0,2012-12-28 22:15:00
3:35 PM,32.0,24.8,75,30.21,10.0,Calm,Calm,-,N/A,,Clear,0,2012-12-28 22:35:00
4:15 PM,32.0,24.8,75,30.22,10.0,West,3.5,-,N/A,,Clear,270,2012-12-28 23:15:00
4:35 PM,28.4,24.8,86,30.21,10.0,West,5.8,-,N/A,,Clear,270,2012-12-28 23:35:00
4:55 PM,28.4,24.8,86,30.21,10.0,West,3.5,-,N/A,,Clear,270,2012-12-28 23:55:00
5:15 PM,26.6,24.8,93,30.21,10.0,Calm,Calm,-,N/A,,Clear,0,2012-12-29 00:15:00
5:35 PM,26.6,26.6,100,30.21,10.0,Calm,Calm,-,N/A,,Clear,0,2012-12-29 00:35:00
5:55 PM,26.6,26.6,100,30.21,10.0,Calm,Calm,-,N/A,,Clear,0,2012-12-29 00:55:00
6:15 PM,24.8,24.8,100,30.21,10.0,Calm,Calm,-,N/A,,Clear,0,2012-12-29 01:15:00
6:35 PM,24.8,24.8,100,30.22,10.0,Calm,Calm,-,N/A,,Clear,0,2012-12-29 01:35:00
6:55 PM,24.8,24.8,100,30.22,9.0,Calm,Calm,-,N/A,,Clear,0,2012-12-29 01:55:00
7:15 PM,23.0,23.0,100,30.22,7.0,Calm,Calm,-,N/A,,Clear,0,2012-12-29 02:15:00
7:35 PM,21.2,21.2,100,30.22,8.0,Calm,Calm,-,N/A,,Clear,0,2012-12-29 02:35:00
7:55 PM,23.0,23.0,100,30.22,6.0,Calm,Calm,-,N/A,,Clear,0,2012-12-29 02:55:00
8:35 PM,21.2,21.2,100,30.22,8.0,Calm,Calm,-,N/A,,Clear,0,2012-12-29 03:35:00
8:55 PM,21.2,21.2,100,30.23,8.0,Calm,Calm,-,N/A,,Clear,0,2012-12-29 03:55:00
9:15 PM,19.4,19.4,100,30.23,9.0,Calm,Calm,-,N/A,,Clear,0,2012-12-29 04:15:00
9:35 PM,19.4,19.4,100,30.23,10.0,Calm,Calm,-,N/A,,Clear,0,2012-12-29 04:35:00
9:55 PM,19.4,19.4,100,30.22,10.0,SE,4.6,-,N/A,,Clear,140,2012-12-29 04:55:00
10:15 PM,19.4,19.4,100,30.23,10.0,SE,4.6,-,N/A,,Clear,140,2012-12-29 05:15:00
10:35 PM,21.2,21.2,100,30.22,10.0,SE,4.6,-,N/A,,Clear,140,2012-12-29 05:35:00
10:55 PM,19.4,19.4,100,30.23,10.0,South,4.6,-,N/A,,Clear,170,2012-12-29 05:55:00
11:15 PM,19.4,19.4,100,30.23,10.0,South,5.8,-,N/A,,Clear,180,2012-12-29 06:15:00
11:35 PM,19.4,19.4,100,30.24,10.0,SSE,6.9,-,N/A,,Clear,150,2012-12-29 06:35:00
11:55 PM,19.4,19.4,100,30.23,10.0,SE,5.8,-,N/A,,Clear,130,2012-12-29 06:55:00